,Sap1,,,Sap2,,,Sap3,,,Sap4,,,Sap5,,,Sap6,,,Sap7,,,Sap8,,,Sap9,,,Thermistor1,Thermistor2,Thermistor3,Thermistor4,Thermistor5,Thermistor6,Pin1,Pin2�E�今回未使用�E�EPAR,
,AH1,BH1,CH1,AH2,BH2,CH2,AH3,BH3,CH3,AH4,BH4,CH4,AH5,BH5,CH5,AH6,BH6,CH6,AH7,BH7,CH7,AH8,BH8,CH8,AH9,BH9,CH9,,,,,,,,,
Time,DIFF1-1[mV] Sensor101,DIFF1-2[mV] Sensor103,DIFF1-3[mV] Sensor105,DIFF1-4[mV] Sensor107,DIFF1-5[mV] Sensor109,DIFF1-6[mV] Sensor111,DIFF2-1[mV] Sensor201,DIFF2-2[mV] Sensor203,DIFF2-3[mV] Sensor205,DIFF2-4[mV] Sensor207,DIFF2-5[mV] Sensor209,DIFF2-6[mV] Sensor211,DIFF3-1[mV] Sensor301,DIFF3-2[mV] Sensor303,DIFF3-3[mV] Sensor305,DIFF3-4[mV] Sensor307,DIFF3-5[mV] Sensor309,DIFF3-6[mV] Sensor311,DIFF4-1[mV] Sensor401,DIFF4-2[mV] Sensor403,DIFF4-3[mV] Sensor405,DIFF4-4[mV] Sensor407,DIFF4-5[mV] Sensor409,DIFF4-6[mV] Sensor411,DIFF5[mV] Sensor9,DIFF6[mV] Sensor11,DIFF7[mV] Sensor13,DIFF1-7[mV] Sensor113,DIFF1-8[mV] Sensor115,DIFF2-7[mV] Sensor213,DIFF2-8[mV] Sensor215,DIFF3-7[mV] Sensor313,DIFF3-8[mV] Sensor315,DIFF4-7[mV] Sensor413,DIFF4-8[mV] Sensor415,DIFF8[mV] Sensor15
19/5/2017 12:00,0.0496,0.05,0.0373,0.0315,0.0464,0.0516,0.0532,0.0652,0.0376,0.0579,0.0625,0.0302,0.0436,0.0483,0.0382,0.0672,0.0804,0.0301,0.1929,0.236,0.1153,0.2405,0.2594,0.1556,0.0992,0.1158,0.0685,2868.04,2777.52,2849.48,2713.91,2822.15,3056.97,6948.12,7809.54,9.8551
19/5/2017 12:10,0.0406,0.0575,0.0283,0.0337,0.0523,0.0473,0.0514,0.0778,0.0395,0.062,0.0703,0.0268,0.04,0.0585,0.0318,0.0781,0.0798,0.0339,0.2158,0.2109,0.1094,0.2515,0.2505,0.1795,0.1019,0.1274,0.067,2900.3,2813.27,2841.19,2703.04,2860.17,3064.13,6943.35,7827.9,9.7559
19/5/2017 12:20,0.0441,0.051,0.0383,0.0297,0.0499,0.0486,0.0442,0.0614,0.0332,0.0519,0.066,0.0261,0.0418,0.0514,0.0359,0.0698,0.0882,0.0267,0.178,0.2282,0.0997,0.2426,0.2599,0.1408,0.1063,0.1296,0.0617,2920.01,2818.92,2842.2,2715.75,2867.34,3077.21,6947.46,7811.37,9.7868
19/5/2017 12:30,0.0389,0.0548,0.0307,0.0353,0.0537,0.0463,0.0434,0.0794,0.035,0.047,0.0654,0.0266,0.0353,0.0577,0.0323,0.0721,0.0848,0.0288,0.1723,0.2261,0.0869,0.248,0.2445,0.148,0.1052,0.1233,0.0635,2895.48,2793.67,2846.53,2713.08,2841.37,3065.27,6946.65,7815.51,9.7571
19/5/2017 12:40,0.0444,0.0494,0.0315,0.0377,0.0499,0.0506,0.0584,0.0604,0.032,0.0482,0.0678,0.0254,0.0463,0.0464,0.037,0.075,0.0868,0.0301,0.1776,0.2072,0.109,0.2243,0.2681,0.1352,0.1063,0.1224,0.0648,2923.09,2818.28,2840.96,2710.37,2843.55,3054.98,6947.34,7803.39,9.648
19/5/2017 12:50,0.0406,0.0562,0.0251,0.044,0.0508,0.0451,0.0477,0.0792,0.0381,0.0484,0.0676,0.0265,0.0445,0.0641,0.0285,0.0805,0.086,0.029,0.1985,0.1977,0.0959,0.2404,0.2352,0.1699,0.1019,0.1297,0.0701,2918.2,2784.27,2838.23,2698.18,2810.23,3039.75,6943.59,7828.02,9.4835
19/5/2017 13:00,0.0442,0.0475,0.0328,0.0426,0.0503,0.0507,0.0697,0.0635,0.0353,0.05,0.0712,0.0214,0.0539,0.0498,0.0336,0.0802,0.0917,0.0319,0.1914,0.1983,0.1203,0.2217,0.2749,0.1356,0.1109,0.1254,0.0663,2911.95,2777.95,2825.12,2684.06,2789.43,3025,6942.87,7800.87,9.3391
19/5/2017 13:10,0.0406,0.048,0.0316,0.0419,0.0518,0.0507,0.0736,0.0643,0.0355,0.05,0.0724,0.0275,0.0572,0.0519,0.0306,0.0854,0.0867,0.0419,0.2069,0.1904,0.1288,0.2245,0.2731,0.1515,0.1096,0.1277,0.0639,2893.79,2773.46,2813.21,2666.64,2779,3006.63,6941.13,7806.96,9.2503
19/5/2017 13:20,0.0339,0.0558,0.0306,0.0431,0.0548,0.0461,0.0493,0.088,0.0336,0.0533,0.0715,0.0288,0.0398,0.0633,0.0275,0.0852,0.0967,0.0303,0.1901,0.2233,0.0894,0.2586,0.2465,0.1663,0.1033,0.1342,0.0689,2924.8,2806.61,2804.11,2665.82,2775.48,2998.33,6940.05,7823.13,9.1101
19/5/2017 13:30,0.0416,0.0444,0.0337,0.0355,0.0496,0.052,0.0617,0.0624,0.0341,0.0502,0.0734,0.025,0.0505,0.0458,0.0319,0.0795,0.089,0.033,0.1949,0.2017,0.1239,0.2239,0.2754,0.1406,0.1135,0.1228,0.0661,2921.62,2790.19,2802.59,2667.7,2748.74,2990.51,6941.67,7800.09,8.8841
19/5/2017 13:40,0.0378,0.0499,0.0276,0.0437,0.0487,0.0539,0.0624,0.0713,0.0369,0.0471,0.0697,0.0265,0.0501,0.0453,0.0331,0.0826,0.0843,0.0358,0.211,0.1891,0.1255,0.2218,0.2693,0.1477,0.111,0.1266,0.0635,2945.55,2809.21,2804.89,2676.65,2805.72,2993.44,6939.99,7805.79,8.6546
19/5/2017 13:50,0.0337,0.0537,0.0254,0.0418,0.0526,0.0457,0.0475,0.0825,0.0362,0.0499,0.0689,0.0289,0.0419,0.0605,0.0259,0.0822,0.0881,0.0298,0.1989,0.2106,0.097,0.2497,0.2352,0.1728,0.1039,0.1322,0.069,2968.05,2813.57,2811.55,2681.55,2795.63,2990.73,6938.25,7825.68,8.5103
19/5/2017 14:00,0.0371,0.0464,0.0309,0.0344,0.0518,0.0471,0.0486,0.0718,0.0319,0.0519,0.0688,0.0282,0.0398,0.0498,0.0316,0.0757,0.0953,0.0308,0.1805,0.2294,0.1011,0.238,0.2623,0.1434,0.1106,0.1288,0.0644,2967.3,2827.39,2817.25,2680.51,2725.78,2984.77,6942,7804.05,8.2286
19/5/2017 14:10,0.0356,0.0475,0.0302,0.0343,0.0573,0.0417,0.0422,0.0786,0.0282,0.0515,0.0709,0.0268,0.0357,0.0586,0.0288,0.0805,0.102,0.0265,0.1793,0.2301,0.098,0.2468,0.2569,0.1479,0.1118,0.1312,0.0683,2943.52,2840.09,2816.3,2680.77,2798.49,2980.06,6941.31,7807.77,8.0521
19/5/2017 14:20,0.0353,0.0462,0.0309,0.0321,0.0552,0.0445,0.0416,0.0835,0.035,0.0558,0.0744,0.0316,0.038,0.0618,0.0278,0.0865,0.0992,0.0267,0.192,0.2249,0.0935,0.2559,0.2366,0.1727,0.1036,0.1339,0.071,2933.8,2829.11,2821.06,2685.22,2775.11,2975.35,6938.25,7823.85,7.7568
19/5/2017 14:30,0.039,0.0494,0.0292,0.0414,0.0451,0.0504,0.0657,0.0692,0.0326,0.0533,0.076,0.0269,0.0559,0.0508,0.035,0.0861,0.0924,0.0366,0.2151,0.1959,0.1331,0.2221,0.2696,0.1522,0.1106,0.1257,0.0687,2924.32,2830.93,2824.51,2688.08,2775.24,2972.79,6939.42,7802.76,7.3989
19/5/2017 14:40,0.0377,0.0502,0.0307,0.0368,0.0601,0.0458,0.0437,0.081,0.0299,0.057,0.0768,0.0293,0.0448,0.0635,0.0289,0.0862,0.1093,0.0294,0.1845,0.2414,0.0973,0.2528,0.2533,0.1606,0.1064,0.131,0.0686,2909.7,2822.25,2822.28,2678.08,2799.08,2948.45,6940.29,7812.33,7.2019
19/5/2017 14:50,0.0406,0.0573,0.0243,0.0455,0.0551,0.048,0.0604,0.0832,0.0364,0.0527,0.0783,0.0316,0.0521,0.0643,0.0291,0.0961,0.1012,0.0349,0.2263,0.2103,0.123,0.2477,0.2558,0.1831,0.1077,0.1348,0.0725,2867.14,2789.38,2818.92,2670.98,2735.66,2946.06,6936.81,7819.11,6.9114
19/5/2017 15:00,0.0438,0.0505,0.0343,0.0375,0.0583,0.0458,0.0539,0.0761,0.0314,0.0572,0.0778,0.0285,0.0537,0.0624,0.0316,0.0924,0.113,0.0305,0.1993,0.2499,0.1164,0.2491,0.2829,0.1495,0.1149,0.1323,0.0708,2811.84,2738.35,2810.84,2650.32,2753.63,2919.75,6941.7,7798.47,6.582
19/5/2017 15:10,0.0398,0.0572,0.0318,0.0439,0.0646,0.0426,0.0482,0.0919,0.0334,0.0597,0.0839,0.0312,0.048,0.0704,0.0319,0.0981,0.1161,0.0321,0.2067,0.2672,0.1056,0.2722,0.272,0.1724,0.1112,0.1379,0.0716,2787.77,2724,2798.27,2632.92,2686.36,2896.94,6940.38,7810.08,6.2417
19/5/2017 15:20,0.0408,0.0588,0.0267,0.0556,0.0578,0.0488,0.0737,0.0845,0.037,0.0595,0.088,0.032,0.0608,0.0679,0.0344,0.1091,0.1102,0.0411,0.2535,0.2297,0.1437,0.2565,0.2825,0.1903,0.1199,0.141,0.0764,2771.82,2719.69,2784.44,2620.55,2725.42,2872.87,6936.9,7811.52,5.6254
19/5/2017 15:30,0.0492,0.0578,0.0328,0.0531,0.0584,0.0528,0.0785,0.0743,0.0342,0.0596,0.0902,0.0294,0.0724,0.0655,0.0377,0.1102,0.1159,0.0442,0.2531,0.2332,0.1577,0.2506,0.2973,0.1886,0.1256,0.1437,0.0788,2791.58,2725.93,2777.05,2615.61,2704.55,2864.89,6937.5,7805.34,5.4094
19/5/2017 15:40,0.0529,0.055,0.0403,0.017,0.0337,0.0625,0.0677,0.0757,0.0419,0.0637,0.093,0.0351,0.0639,0.0687,0.0394,0.1084,0.1251,0.0414,0.2348,0.2673,0.1508,0.2571,0.3186,0.1686,0.1306,0.1459,0.0759,2770.37,2731.59,2774.78,2608.82,2669.99,2843.37,6941.79,7789.11,5.1028
19/5/2017 15:50,0.0499,0.0618,0.0271,0.049,0.0568,0.0538,0.0804,0.0804,0.0416,0.0594,0.0907,0.031,0.0616,0.0584,0.0306,0.109,0.1149,0.0361,0.2612,0.2329,0.1527,0.2629,0.3023,0.1928,0.1222,0.143,0.0757,2970.04,2768.39,2762.95,2595.64,2654.66,2842.26,6937.08,7807.05,4.7567
19/5/2017 16:00,0.0439,0.0468,0.0304,0.0465,0.0586,0.0449,0.0766,0.0668,0.0352,0.06,0.087,0.0235,0.0547,0.0515,0.0301,0.0927,0.1113,0.0322,0.2273,0.2474,0.1448,0.261,0.3215,0.1577,0.122,0.1389,0.0695,2815.99,2709.75,2753.24,2586.25,2647.95,2848.84,6941.49,7788.96,4.4469
19/5/2017 16:10,0.033,0.0492,0.0242,0.0435,0.0687,0.0367,0.0453,0.0994,0.037,0.0596,0.0834,0.0274,0.0388,0.0676,0.0261,0.101,0.1163,0.0248,0.2282,0.2663,0.1149,0.2981,0.2824,0.1985,0.1135,0.1416,0.0726,2735.36,2679.48,2743.14,2577.42,2667.81,2834.19,6936.9,7815.96,4.1074
19/5/2017 16:20,0.0375,0.0609,0.0206,0.0536,0.0612,0.0402,0.064,0.1091,0.0321,0.0574,0.0848,0.031,0.0492,0.0728,0.0264,0.101,0.1127,0.0304,0.25,0.2674,0.1301,0.3061,0.2928,0.2126,0.1113,0.1432,0.0766,2670.41,2615.81,2729.47,2555.05,2608.44,2815.76,6935.52,7817.43,3.6965
19/5/2017 16:30,0.048,0.0556,0.0319,0.0457,0.0661,0.044,0.0644,0.0872,0.0298,0.0593,0.0864,0.0292,0.0575,0.0637,0.034,0.0986,0.1224,0.0349,0.2453,0.2868,0.1609,0.2831,0.3328,0.174,0.126,0.1409,0.073,2661.68,2606.41,2711.61,2538.91,2601.7,2791.75,6941.19,7786.17,3.2213
19/5/2017 16:40,0.0422,0.056,0.0325,0.0461,0.0694,0.0448,0.0693,0.1169,0.0303,0.0638,0.0897,0.0336,0.0527,0.0719,0.0365,0.1094,0.1276,0.0381,0.2512,0.3071,0.1475,0.3115,0.326,0.1993,0.1282,0.1501,0.0808,2614.65,2574.34,2698.69,2519.32,2599.38,2757.45,6939.87,7797.54,2.9613
19/5/2017 16:50,0.0439,0.0702,0.0274,0.0589,0.0712,0.0433,0.0752,0.1237,0.0328,0.0621,0.0999,0.0366,0.0651,0.0842,0.032,0.1197,0.1243,0.041,0.2993,0.2903,0.1774,0.3104,0.3233,0.2304,0.1274,0.1562,0.0823,2581.41,2551.85,2687.22,2507.65,2582.18,2741.21,6932.43,7811.76,2.673
19/5/2017 17:00,0.0649,0.0628,0.0348,0.0609,0.0689,0.0537,0.1035,0.0887,0.0357,0.0691,0.1028,0.0351,0.0754,0.0715,0.0431,0.1137,0.1324,0.0491,0.2931,0.3194,0.2043,0.2946,0.3566,0.1968,0.1395,0.1581,0.0835,2544.88,2520.42,2681.09,2491.85,2539.77,2713.98,6940.29,7781.13,2.2348
19/5/2017 17:10,0.0625,0.0808,0.0329,0.062,0.0851,0.0451,0.0759,0.1314,0.0404,0.0762,0.1076,0.0462,0.0731,0.1029,0.0436,0.1218,0.1447,0.0481,0.3067,0.358,0.1765,0.3339,0.3342,0.2405,0.132,0.1679,0.0922,2517.16,2502.91,2676.64,2468.63,2543.04,2678.49,6936.96,7805.28,1.9605
19/5/2017 17:20,0.0816,0.1004,0.0356,0.0796,0.0848,0.0583,0.1219,0.1189,0.0438,0.0755,0.1217,0.0459,0.1029,0.0996,0.0502,0.1347,0.145,0.0643,0.3497,0.3383,0.2401,0.3034,0.3651,0.2501,0.1433,0.1661,0.0978,2499.5,2482.12,2667.64,2448.66,2494.73,2635.78,6933.06,7791.93,1.651
19/5/2017 17:30,0.0913,0.1082,0.0377,0.0846,0.0892,0.0598,0.1323,0.1398,0.046,0.0839,0.1281,0.0521,0.1064,0.1201,0.0565,0.1417,0.1567,0.0695,0.3796,0.3782,0.2481,0.3392,0.3677,0.3007,0.1343,0.1744,0.1043,2476.04,2456.59,2662.13,2428.31,2476.85,2602.16,6925.92,7808.43,1.3818
19/5/2017 17:40,0.0933,0.1131,0.0399,0.0875,0.1072,0.0554,0.1086,0.1709,0.0471,0.0873,0.1316,0.0591,0.1023,0.1383,0.0595,0.1387,0.1711,0.0644,0.3795,0.4099,0.2427,0.3561,0.3663,0.3113,0.1321,0.1772,0.11,2450.69,2439.65,2658.44,2405.37,2442.75,2564.48,6927.69,7808.46,1.1078
19/5/2017 17:50,0.1112,0.122,0.0499,0.0931,0.1055,0.0711,0.1628,0.1344,0.049,0.0892,0.1379,0.0544,0.1307,0.1244,0.0693,0.1381,0.1634,0.0826,0.3925,0.4117,0.3114,0.3315,0.4119,0.3029,0.1462,0.1735,0.1077,2434.06,2427.17,2653.65,2392.63,2460.07,2538.96,6932.04,7772.85,0.8158
19/5/2017 18:00,0.1139,0.1291,0.0529,0.086,0.12,0.0667,0.1372,0.1637,0.0515,0.097,0.1417,0.0641,0.1144,0.1449,0.0769,0.1264,0.1785,0.0807,0.3832,0.457,0.2865,0.3541,0.4008,0.3139,0.1326,0.1778,0.1129,2417.57,2411.48,2658.02,2380.99,2409.67,2503.42,6937.29,7778.25,0.5783
19/5/2017 18:10,0.1187,0.1421,0.0462,0.1018,0.1215,0.0685,0.1453,0.2059,0.0596,0.0954,0.1469,0.0704,0.1206,0.164,0.0769,0.1364,0.1697,0.085,0.4108,0.4545,0.2982,0.3671,0.3909,0.3522,0.1226,0.1742,0.124,2389.07,2389.98,2662.57,2365.45,2382.19,2471.93,6927.6,7799.25,0.386
19/5/2017 18:20,0.1271,0.1466,0.0608,0.0901,0.1302,0.0771,0.1564,0.1912,0.0531,0.1011,0.1511,0.0743,0.1234,0.1578,0.0927,0.1182,0.1724,0.0936,0.412,0.4879,0.3389,0.3731,0.4283,0.3614,0.1253,0.1679,0.127,2359.63,2358.89,2664.68,2344.22,2329.61,2431.87,6935.4,7769.1,0.2398
19/5/2017 18:30,0.1326,0.1627,0.056,0.1058,0.1197,0.0891,0.2047,0.1816,0.0581,0.0974,0.1583,0.0763,0.1451,0.1531,0.0998,0.1245,0.1621,0.1082,0.4488,0.4914,0.3999,0.3805,0.4635,0.402,0.127,0.1687,0.1305,2332.01,2334.59,2661.88,2320.95,2313.36,2394.87,6927.42,7757.82,0.1271
19/5/2017 18:40,0.1441,0.1636,0.0601,0.0916,0.135,0.0764,0.1544,0.2425,0.0648,0.0969,0.1596,0.0879,0.1228,0.1806,0.0964,0.1174,0.1674,0.099,0.4829,0.5171,0.4172,0.4177,0.4771,0.4473,0.1178,0.1674,0.1522,2303.8,2297.6,2664.44,2305.19,2292.3,2363.86,6910.41,7797.39,0.0514
19/5/2017 18:50,0.1384,0.1743,0.0596,0.1044,0.118,0.0866,0.2118,0.2192,0.0659,0.0918,0.1656,0.0858,0.1405,0.1671,0.1056,0.113,0.151,0.1152,0.4977,0.5284,0.4518,0.43,0.502,0.4694,0.1159,0.1651,0.1517,2286.4,2283.82,2663.17,2288.41,2271.19,2338.49,6907.26,7777.14,0.017
19/5/2017 19:00,0.1405,0.1776,0.0656,0.1004,0.1123,0.0952,0.2254,0.2157,0.0688,0.0856,0.1663,0.0879,0.1448,0.1613,0.1123,0.1025,0.1438,0.12,0.513,0.557,0.483,0.4551,0.5239,0.501,0.1166,0.1716,0.1593,2278.34,2277.07,2665.64,2274.73,2256.5,2315.56,6906.72,7767.48,0.0111
19/5/2017 19:10,0.1437,0.1802,0.0628,0.0967,0.1146,0.0886,0.2057,0.2502,0.0787,0.0813,0.1614,0.0973,0.1271,0.1745,0.1036,0.0938,0.1409,0.1121,0.5458,0.5826,0.5231,0.4735,0.5654,0.5313,0.1236,0.1677,0.1873,2254.84,2248.61,2668.58,2258.15,2225.65,2292.49,6897.33,7790.31,0.0071
19/5/2017 19:20,0.1481,0.1808,0.0776,0.0752,0.1184,0.0968,0.2158,0.2063,0.067,0.0894,0.1545,0.0962,0.1306,0.1519,0.1252,0.0753,0.1395,0.1162,0.5519,0.6338,0.5486,0.5303,0.5621,0.5856,0.1212,0.195,0.1531,2242.35,2236.17,2665.06,2242.95,2227,2275.88,6919.98,7737.24,0.0429
19/5/2017 19:30,0.1525,0.1801,0.073,0.0719,0.1271,0.0822,0.173,0.2708,0.0771,0.0846,0.1525,0.1056,0.1051,0.1769,0.1109,0.0771,0.1415,0.1045,0.6,0.6292,0.5973,0.5151,0.6236,0.5796,0.1431,0.175,0.2004,2236.06,2231.29,2665.25,2229.96,2203.47,2259.99,6904.02,7777.98,0.0327
19/5/2017 19:40,0.1463,0.1885,0.0742,0.0833,0.0996,0.1025,0.2413,0.2236,0.0752,0.0784,0.1575,0.0983,0.1314,0.1543,0.1224,0.0785,0.1243,0.1215,0.5747,0.6649,0.5788,0.5563,0.6119,0.6103,0.1248,0.1898,0.191,2225.17,2218.22,2659.24,2221.9,2196.16,2247.77,6896.31,7760.01,0.0293
19/5/2017 19:50,0.1545,0.1815,0.0769,0.0636,0.1246,0.0814,0.171,0.27,0.0768,0.0785,0.1475,0.1125,0.1,0.1734,0.1128,0.0639,0.1337,0.1033,0.6261,0.6476,0.6324,0.5336,0.6448,0.6133,0.1494,0.178,0.1994,2216.22,2209.07,2660.18,2212.29,2207.81,2240.19,6908.7,7767.63,0.0448
19/5/2017 20:00,0.1493,0.1838,0.0664,0.0746,0.1151,0.0831,0.1848,0.2828,0.0816,0.0703,0.1473,0.1071,0.1012,0.1737,0.1094,0.0658,0.1303,0.1063,0.6398,0.6633,0.6563,0.5428,0.6696,0.617,0.1508,0.1773,0.2185,2209.92,2200.23,2657.97,2206.57,2198.81,2230.94,6898.77,7776.39,0.0391
19/5/2017 20:10,0.1422,0.1873,0.0685,0.0799,0.0975,0.0963,0.2236,0.2473,0.0833,0.0644,0.1485,0.1028,0.1118,0.1643,0.1099,0.0691,0.1158,0.1203,0.6082,0.6746,0.6308,0.5521,0.6712,0.6187,0.1393,0.1746,0.2292,2211.51,2207.45,2655.6,2201.2,2171.04,2221.74,6886.35,7780.95,0.0184
19/5/2017 20:20,0.1543,0.1828,0.0838,0.0498,0.1206,0.0816,0.1757,0.2621,0.078,0.0731,0.1382,0.1142,0.0958,0.1593,0.1205,0.052,0.13,0.107,0.646,0.6729,0.6609,0.5829,0.636,0.6731,0.1444,0.1991,0.1806,2205.12,2198.89,2656.07,2196.52,2169.9,2214.81,6920.82,7741.23,0.0808
19/5/2017 20:30,0.1467,0.182,0.0787,0.0525,0.1178,0.0827,0.1673,0.2711,0.0862,0.066,0.1368,0.1155,0.089,0.1647,0.1114,0.0551,0.1238,0.1032,0.6334,0.644,0.6624,0.5365,0.6698,0.6214,0.1438,0.1682,0.2177,2204.46,2202.92,2657.1,2192.37,2177.18,2212.23,6900.48,7776.36,0.0333
19/5/2017 20:40,0.1346,0.179,0.072,0.0698,0.099,0.0892,0.1855,0.2739,0.0897,0.058,0.1416,0.1138,0.0904,0.1664,0.1115,0.0519,0.1148,0.1098,0.6162,0.6319,0.6556,0.5257,0.6534,0.6157,0.1371,0.1653,0.2043,2200.58,2202.82,2657.24,2187.93,2159.88,2206.03,6905.64,7771.92,0.0422
19/5/2017 20:50,0.1395,0.1762,0.0914,0.0396,0.1126,0.0938,0.1862,0.2379,0.0785,0.0678,0.13,0.113,0.0935,0.1431,0.131,0.0369,0.1156,0.1134,0.6129,0.6881,0.6391,0.6106,0.6066,0.6879,0.1151,0.2024,0.1663,2196.47,2182.44,2657.05,2185.77,2166.06,2199.12,6920.85,7729.17,0.0755
19/5/2017 21:00,0.1345,0.1779,0.0916,0.0387,0.1051,0.0942,0.192,0.2273,0.0799,0.0625,0.1267,0.1113,0.0916,0.143,0.1325,0.0346,0.1099,0.1115,0.619,0.689,0.6484,0.6099,0.6094,0.6979,0.1195,0.2037,0.1687,2193.54,2183.4,2658.6,2183.92,2155.11,2195.14,6922.02,7729.83,0.0843
19/5/2017 21:10,0.129,0.1779,0.0935,0.043,0.0948,0.1031,0.2123,0.2107,0.0813,0.0597,0.1281,0.11,0.0963,0.1361,0.135,0.0339,0.1082,0.1157,0.6135,0.6911,0.6455,0.6139,0.6103,0.6992,0.1178,0.1976,0.1655,2189.13,2183.69,2658.92,2180.42,2149.22,2186.99,6921.84,7729.17,0.0842
19/5/2017 21:20,0.1324,0.172,0.0759,0.0533,0.0935,0.0848,0.1764,0.2719,0.0951,0.047,0.1279,0.1182,0.0844,0.1579,0.1146,0.0429,0.1058,0.1127,0.637,0.6624,0.6931,0.5454,0.7057,0.641,0.1442,0.1618,0.2382,2184.5,2179.35,2661.26,2175.16,2138.44,2179.37,6890.97,7780.23,0.0296
19/5/2017 21:30,0.1215,0.1746,0.0878,0.0509,0.0783,0.1068,0.2343,0.2083,0.0877,0.0492,0.1298,0.1048,0.1001,0.1314,0.1298,0.0369,0.0914,0.1235,0.5883,0.7348,0.6417,0.6297,0.6603,0.6886,0.114,0.1946,0.2099,2184.53,2175.72,2657.32,2172.13,2142.03,2174.13,6893.28,7751.13,0.0433
19/5/2017 21:40,0.1259,0.1831,0.0954,0.0438,0.0822,0.1065,0.2221,0.2063,0.0815,0.0501,0.123,0.1089,0.0967,0.1298,0.1328,0.0309,0.1048,0.1211,0.6421,0.7279,0.6839,0.6587,0.6393,0.7496,0.1244,0.2202,0.175,2176.08,2169.78,2657.83,2170.85,2151.87,2171.71,6919.59,7725.87,0.1024
19/5/2017 21:50,0.1262,0.1843,0.0929,0.0368,0.0857,0.1051,0.2182,0.2112,0.0826,0.0502,0.119,0.1102,0.0916,0.1312,0.1353,0.0284,0.1055,0.1173,0.658,0.7541,0.6943,0.6867,0.6508,0.7782,0.1279,0.2331,0.1766,2177.59,2169.2,2657.16,2167.68,2149.01,2170.8,6916.05,7723.26,0.1083
19/5/2017 22:00,0.1324,0.1712,0.0888,0.0289,0.1064,0.0867,0.1641,0.2608,0.0881,0.0529,0.115,0.12,0.0715,0.1495,0.1204,0.0309,0.1074,0.1017,0.6923,0.6745,0.7441,0.5866,0.7013,0.6931,0.1538,0.1759,0.2248,2176.24,2169.04,2657.82,2163.82,2132.7,2166.92,6907.53,7759.89,0.0627
19/5/2017 22:10,0.1233,0.1794,0.0955,0.0382,0.0851,0.108,0.2225,0.209,0.0826,0.0521,0.1233,0.1087,0.0922,0.1263,0.1374,0.0258,0.1019,0.119,0.6412,0.7525,0.6817,0.6798,0.6435,0.7601,0.1196,0.2296,0.1785,2173.31,2164.05,2652.68,2160.7,2153.01,2162.54,6915.09,7724.85,0.101
19/5/2017 22:20,0.1247,0.1767,0.0973,0.0294,0.0888,0.1014,0.2049,0.2151,0.0842,0.0527,0.1184,0.1111,0.0881,0.1251,0.1333,0.026,0.1006,0.1192,0.6398,0.7553,0.6793,0.6806,0.6458,0.7551,0.1136,0.2256,0.1854,2170.87,2161.97,2651.01,2157.92,2129.41,2157.99,6911.07,7726.95,0.0953
19/5/2017 22:30,0.1272,0.1704,0.0927,0.025,0.102,0.0913,0.1712,0.2515,0.087,0.0521,0.1167,0.118,0.0692,0.1379,0.1258,0.0252,0.1075,0.1058,0.7079,0.6923,0.7551,0.6185,0.7067,0.7322,0.1585,0.1939,0.2166,2168.79,2162.59,2650.74,2153.73,2128.68,2155.75,6912.87,7747.92,0.0961
19/5/2017 22:40,0.1221,0.1644,0.0891,0.0202,0.1015,0.0832,0.1553,0.2679,0.0897,0.0444,0.1106,0.1172,0.0617,0.1484,0.1129,0.0274,0.1029,0.0965,0.7119,0.682,0.7671,0.5858,0.7443,0.7022,0.1791,0.1871,0.2538,2165.48,2158.61,2649.02,2148.46,2121.87,2152.42,6899.73,7765.23,0.0678
19/5/2017 22:50,0.1204,0.1676,0.0741,0.0424,0.0862,0.0832,0.171,0.2823,0.0969,0.0381,0.1164,0.1177,0.0663,0.1468,0.1135,0.0286,0.0998,0.0999,0.74,0.7043,0.7959,0.633,0.7432,0.7669,0.1802,0.2163,0.2192,2159.11,2153.2,2646.26,2145.15,2117.55,2147.61,6910.53,7744.65,0.1249
19/5/2017 23:00,0.1179,0.1675,0.0787,0.0434,0.0836,0.09,0.1875,0.2745,0.1003,0.039,0.1209,0.1181,0.0724,0.1469,0.1168,0.0379,0.0922,0.115,0.6916,0.7308,0.7751,0.6064,0.795,0.7045,0.1804,0.1754,0.2862,2158.7,2152.16,2643.22,2143.31,2115.4,2145.8,6880.98,7775.88,0.0468
19/5/2017 23:10,0.1203,0.1734,0.0991,0.0233,0.0844,0.1049,0.2127,0.2092,0.0922,0.0464,0.1179,0.1107,0.0852,0.1246,0.1365,0.0269,0.0934,0.1236,0.6429,0.7881,0.6914,0.7081,0.6767,0.7786,0.1169,0.2313,0.2057,2156.64,2145.4,2638.52,2141.15,2112.11,2141.81,6900.87,7731.6,0.085
19/5/2017 23:20,0.1202,0.1646,0.0798,0.0328,0.09,0.0877,0.1643,0.2799,0.0968,0.0398,0.1179,0.1215,0.0615,0.149,0.1189,0.0328,0.1018,0.1062,0.7222,0.6972,0.7889,0.5981,0.7631,0.7221,0.1793,0.1805,0.2524,2152.81,2144.01,2640.55,2136.49,2110.85,2138.72,6898.98,7761.87,0.0844
19/5/2017 23:30,0.1126,0.1698,0.0834,0.0444,0.0692,0.1021,0.216,0.2354,0.0967,0.033,0.1214,0.1091,0.0825,0.1333,0.1198,0.0326,0.0867,0.1256,0.6342,0.7749,0.7169,0.6558,0.7474,0.7143,0.1413,0.1938,0.2598,2151.69,2144.15,2635.72,2133.2,2113.75,2136.32,6878.55,7762.98,0.0428
19/5/2017 23:40,0.1122,0.1581,0.0806,0.0371,0.0766,0.0911,0.184,0.2615,0.0978,0.0314,0.1148,0.1138,0.0697,0.1371,0.1182,0.0327,0.0872,0.116,0.6452,0.7482,0.7351,0.6217,0.7665,0.7009,0.1466,0.1845,0.2668,2148.87,2140.29,2635.78,2132.04,2101.79,2133.31,6876.3,7770.87,0.032
19/5/2017 23:50,0.1185,0.1603,0.0909,0.0169,0.0944,0.0842,0.1515,0.2642,0.0924,0.0401,0.1042,0.1235,0.0547,0.1358,0.1208,0.018,0.1017,0.1029,0.7475,0.7051,0.8091,0.6267,0.7524,0.7579,0.181,0.2028,0.2415,2150.28,2140.82,2637.1,2132.54,2106.5,2131.78,6905.1,7751.16,0.1068
20/5/2017 0:00,0.1094,0.172,0.0891,0.0336,0.0621,0.1116,0.2211,0.2022,0.0926,0.031,0.1135,0.1093,0.0822,0.1187,0.1327,0.0231,0.0817,0.1261,0.6348,0.8074,0.7014,0.7149,0.6996,0.781,0.1233,0.2348,0.2184,2146.57,2140.62,2633.13,2131.62,2119.4,2130.78,6893.37,7736.46,0.0863
20/5/2017 0:10,0.1041,0.1667,0.0904,0.039,0.0604,0.106,0.2239,0.2105,0.0918,0.0325,0.1156,0.1054,0.0804,0.1163,0.13,0.0244,0.0802,0.1276,0.6267,0.8049,0.7007,0.7055,0.7047,0.7681,0.1188,0.2271,0.2216,2143.79,2134.85,2632.59,2127.32,2103.53,2128.11,6891.06,7739.7,0.0798
20/5/2017 0:20,0.1156,0.1626,0.1016,0.0088,0.0881,0.0928,0.1678,0.2305,0.0898,0.0395,0.104,0.1193,0.0599,0.1261,0.1299,0.0121,0.0994,0.1082,0.7373,0.7454,0.7797,0.6926,0.7085,0.8171,0.158,0.233,0.2069,2139.08,2124.62,2633.41,2126.07,2103.32,2125.32,6915.69,7729.95,0.1442
20/5/2017 0:30,0.1137,0.1645,0.1038,0.0182,0.0775,0.1023,0.1967,0.2036,0.0863,0.0365,0.1055,0.1127,0.0727,0.1172,0.1375,0.0147,0.0892,0.1239,0.6852,0.8359,0.7357,0.7666,0.7066,0.8431,0.1305,0.2645,0.2173,2133.72,2124.53,2631.58,2124.41,2105.95,2122.02,6899.97,7725.24,0.1181
20/5/2017 0:40,0.1139,0.1618,0.0819,0.0374,0.0756,0.0935,0.1754,0.2633,0.0999,0.03,0.1136,0.1201,0.0631,0.1396,0.1168,0.0277,0.0876,0.1138,0.7087,0.7325,0.8008,0.6064,0.8095,0.7221,0.182,0.1706,0.2842,2132.92,2123.92,2631.93,2118.28,2082.83,2116.31,6882.84,7773.12,0.0593
20/5/2017 0:50,0.11,0.1669,0.1025,0.0251,0.0834,0.1096,0.1851,0.2088,0.091,0.0403,0.1079,0.1184,0.0696,0.117,0.1384,0.013,0.0928,0.1199,0.7007,0.7657,0.7442,0.7101,0.6717,0.8178,0.1303,0.2346,0.1883,2127.69,2113.15,2625.7,2109.89,2082.49,2112.14,6915.42,7723.14,0.1331
20/5/2017 1:00,0.107,0.1663,0.1004,0.0272,0.0717,0.1122,0.2089,0.196,0.0883,0.0376,0.1119,0.1143,0.0744,0.1175,0.138,0.0145,0.0925,0.1191,0.7049,0.7753,0.7553,0.7204,0.6823,0.8297,0.1385,0.2375,0.196,2127.9,2117.49,2620.57,2106.35,2083.84,2110.04,6915.6,7724.22,0.1435
20/5/2017 1:10,0.1184,0.1549,0.086,0.0207,0.086,0.0879,0.153,0.2734,0.097,0.0327,0.1066,0.1217,0.0549,0.1378,0.1181,0.0185,0.0914,0.1074,0.7719,0.7328,0.8485,0.6297,0.8213,0.7613,0.2023,0.1887,0.2824,2125.92,2117.41,2621.43,2108.66,2082.92,2107.59,6891.03,7762.38,0.0961
20/5/2017 1:20,0.1127,0.1626,0.102,0.0063,0.0842,0.1004,0.1784,0.2127,0.0897,0.0399,0.106,0.115,0.0677,0.1187,0.1372,0.0112,0.0869,0.1228,0.7151,0.842,0.76,0.7833,0.7088,0.8724,0.1312,0.2741,0.2144,2124.71,2113.38,2617.94,2109.31,2081.89,2106.41,6902.19,7720.74,0.1325
20/5/2017 1:30,0.1187,0.1568,0.0801,0.0215,0.0773,0.0822,0.1443,0.2315,0.099,0.0216,0.1046,0.1143,0.0664,0.1405,0.1138,0.026,0.0796,0.1148,0.7046,0.8112,0.8028,0.6687,0.8393,0.752,0.1801,0.2108,0.3026,2121.35,2113.33,2618.5,2105.34,2076.01,2101.42,6868.77,7767.72,0.0502
20/5/2017 1:40,0.1142,0.1737,0.1006,0.0111,0.0729,0.1061,0.1793,0.1873,0.0862,0.035,0.1025,0.1118,0.0742,0.1157,0.136,0.0145,0.0838,0.1194,0.7162,0.8719,0.7593,0.8011,0.7253,0.8807,0.1327,0.2774,0.2206,2121.09,2109.75,2613.75,2102.92,2071.73,2097.92,6898.47,7721.97,0.1378
20/5/2017 1:50,0.1091,0.1735,0.1033,0.0271,0.0795,0.111,0.1999,0.1935,0.0893,0.0321,0.1046,0.1123,0.0749,0.1141,0.1391,0.0139,0.0827,0.1242,0.6993,0.8845,0.7599,0.7941,0.7439,0.8598,0.134,0.267,0.2456,2116.05,2103.23,2611.29,2097.91,2068.97,2095.23,6888.81,7729.98,0.1154